Blair, NE

9:47 PM CDT on April 25, 2017 (GMT -0500)
Blair Municipal

Weather History for KBTA - January, 2014

Change the Weather History Date:

Wednesday, January 8, 2014

  Actual Average (KOMA) Record (KOMA)
Temperature  
Mean Temperature 17 °F -  
Max Temperature 21 °F 27 °F 68 °F (2003)
Min Temperature 13 °F 9 °F -23 °F (1886)
Degree Days  
Heating Degree Days 48    
Moisture  
Dew Point 8 °F    
Average Humidity 67    
Maximum Humidity 75    
Minimum Humidity 57    
Precipitation  
Precipitation 0.00 in - - ()
Sea Level Pressure  
Sea Level Pressure 30.32 in    
Wind  
Wind Speed 5 mph (NE)    
Max Wind Speed 13 mph    
Max Gust Speed -    
Visibility 10 miles    
Events      
Averages and records for this station are not official NWS values.
T = Trace of Precipitation, MM = Missing Value Source: NWS Daily Summary

Daily Weather History Graph

Daily Weather History Graph

Search for Another Location

Airport or City:

Trip Planner

Search our weather history database for the weather conditions in past years. The results will help you decide how hot, cold, wet, or windy it might be!

Date:

Astronomy

Jan. 08, 2014 Rise Set
Actual Time 7:50 AM CST 5:12 PM CST
Civil Twilight 7:19 AM CST 5:43 PM CST
Nautical Twilight 6:45 AM CST 6:17 PM CST
Astronomical Twilight 6:11 AM CST 6:51 PM CST
Moon 12:07 PM CST (1/8) 12:54 AM CST (1/8)
Length of Visible Light 10h 23m
Length of Day
9h 21m
First Quarter, 56% of the Moon is Illuminated
Jan 8
First Quarter
Jan 15
Full
Jan 23
Last Quarter
Jan 30
New
Feb 6
First Quarter

Hourly Weather History & Observations

Time (CST) Temp. Windchill Dew Point Humidity Pressure Visibility Wind Dir Wind Speed Gust Speed Precip Events Conditions
12:15 AM 17.6 °F - 8.4 °F 67% 30.22 in 7.0 mi Calm Calm - N/A   Overcast
12:35 AM 17.6 °F - 8.6 °F 68% 30.22 in 10.0 mi Calm Calm - N/A   Overcast
12:55 AM 17.6 °F - 9.0 °F 69% 30.22 in 10.0 mi Calm Calm - N/A   Overcast
1:15 AM 17.6 °F 12.3 °F 9.0 °F 69% 30.23 in 10.0 mi NW 3.5 mph - N/A   Overcast
1:35 AM 17.6 °F 9.3 °F 9.5 °F 71% 30.23 in 10.0 mi NW 5.8 mph - N/A   Overcast
1:55 AM 17.6 °F 9.3 °F 9.5 °F 71% 30.24 in 10.0 mi NNW 5.8 mph - N/A   Overcast
2:15 AM 17.2 °F 10.2 °F 9.3 °F 71% 30.24 in 10.0 mi NNW 4.6 mph - N/A   Overcast
2:35 AM 17.2 °F 7.8 °F 9.0 °F 70% 30.24 in 10.0 mi NNW 6.9 mph - N/A   Overcast
2:55 AM 17.4 °F 9.1 °F 8.8 °F 69% 30.24 in 10.0 mi North 5.8 mph - N/A   Overcast
3:15 AM 17.1 °F 6.6 °F 7.3 °F 66% 30.24 in 10.0 mi North 8.1 mph - N/A   Overcast
3:35 AM 16.7 °F 6.2 °F 7.5 °F 67% 30.25 in 10.0 mi North 8.1 mph - N/A   Mostly Cloudy
3:55 AM 16.3 °F 7.8 °F 7.3 °F 68% 30.25 in 10.0 mi NNE 5.8 mph - N/A   Scattered Clouds
4:15 AM 15.8 °F 7.2 °F 7.7 °F 70% 30.25 in 10.0 mi NNE 5.8 mph - N/A   Mostly Cloudy
4:35 AM 15.1 °F 3.3 °F 8.4 °F 75% 30.25 in 10.0 mi North 9.2 mph - N/A   Scattered Clouds
4:55 AM 14.7 °F 4.8 °F 7.7 °F 74% 30.25 in 10.0 mi North 6.9 mph - N/A   Scattered Clouds
5:15 AM 14.4 °F 2.4 °F 7.5 °F 74% 30.26 in 10.0 mi North 9.2 mph - N/A   Scattered Clouds
5:35 AM 14.0 °F 5.1 °F 7.0 °F 74% 30.26 in 10.0 mi North 5.8 mph - N/A   Clear
5:55 AM 14.0 °F 3.9 °F 7.3 °F 75% 30.26 in 10.0 mi North 6.9 mph - N/A   Scattered Clouds
6:15 AM 13.8 °F 4.9 °F 6.8 °F 74% 30.27 in 10.0 mi North 5.8 mph - N/A   Overcast
6:35 AM 14.0 °F 5.1 °F 7.2 °F 74% 30.27 in 10.0 mi NNE 5.8 mph - N/A   Overcast
6:55 AM 14.0 °F 5.1 °F 6.8 °F 73% 30.28 in 10.0 mi NNE 5.8 mph - N/A   Overcast
7:15 AM 14.0 °F 6.5 °F 6.8 °F 73% 30.28 in 10.0 mi NNE 4.6 mph - N/A   Overcast
7:35 AM 14.0 °F 5.1 °F 7.0 °F 74% 30.30 in 10.0 mi NNE 5.8 mph - N/A   Overcast
7:55 AM 14.0 °F 6.5 °F 7.2 °F 74% 30.30 in 7.0 mi NNE 4.6 mph - N/A   Overcast
8:15 AM 14.0 °F 3.9 °F 7.3 °F 75% 30.31 in 10.0 mi NNE 6.9 mph - N/A   Overcast
8:35 AM 14.0 °F 3.9 °F 7.3 °F 75% 30.32 in 10.0 mi NNE 6.9 mph - N/A   Overcast
8:55 AM 14.5 °F 5.7 °F 7.7 °F 74% 30.33 in 10.0 mi NE 5.8 mph - N/A   Overcast
9:15 AM 14.7 °F 4.8 °F 7.7 °F 74% 30.35 in 10.0 mi NNE 6.9 mph - N/A   Overcast
9:35 AM 14.9 °F 4.0 °F 7.9 °F 74% 30.35 in 10.0 mi NE 8.1 mph - N/A   Overcast
9:55 AM 15.6 °F 5.9 °F 8.1 °F 72% 30.36 in 10.0 mi NNE 6.9 mph - N/A   Overcast
10:15 AM 15.8 °F 7.2 °F 7.3 °F 69% 30.37 in 10.0 mi NNE 5.8 mph - N/A   Overcast
10:35 AM 16.0 °F 6.3 °F 7.3 °F 69% 30.37 in 10.0 mi ENE 6.9 mph - N/A   Overcast
10:55 AM 16.3 °F 7.8 °F 7.5 °F 68% 30.37 in 10.0 mi ENE 5.8 mph - N/A   Overcast
11:15 AM 17.1 °F 6.6 °F 7.9 °F 67% 30.37 in 10.0 mi NE 8.1 mph - N/A   Overcast
11:35 AM 17.6 °F 8.2 °F 7.9 °F 66% 30.37 in 10.0 mi NE 6.9 mph - N/A   Mostly Cloudy
11:55 AM 18.5 °F 10.4 °F 7.7 °F 63% 30.36 in 10.0 mi ENE 5.8 mph - N/A   Scattered Clouds
12:15 PM 18.1 °F 8.9 °F 7.3 °F 63% 30.36 in 10.0 mi NNE 6.9 mph - N/A   Scattered Clouds
12:35 PM 18.7 °F 10.6 °F 7.7 °F 62% 30.35 in 10.0 mi ENE 5.8 mph - N/A   Clear
12:55 PM 18.7 °F 9.5 °F 7.9 °F 63% 30.35 in 10.0 mi NE 6.9 mph - N/A   Clear
1:15 PM 19.4 °F 10.4 °F 8.1 °F 61% 30.33 in 10.0 mi ENE 6.9 mph - N/A   Clear
1:35 PM 20.1 °F 11.3 °F 8.1 °F 60% 30.33 in 10.0 mi ENE 6.9 mph - N/A   Scattered Clouds
1:55 PM 21.2 °F 13.6 °F 8.1 °F 57% 30.33 in 10.0 mi NE 5.8 mph - N/A   Mostly Cloudy
2:15 PM 20.8 °F 12.1 °F 8.2 °F 58% 30.33 in 10.0 mi ENE 6.9 mph - N/A   Overcast
2:35 PM 20.5 °F 12.8 °F 8.2 °F 59% 30.33 in 10.0 mi ENE 5.8 mph - N/A   Overcast
2:55 PM 20.7 °F 11.9 °F 8.6 °F 60% 30.33 in 10.0 mi NE 6.9 mph - N/A   Overcast
3:15 PM 20.3 °F 11.5 °F 8.6 °F 61% 30.33 in 10.0 mi ENE 6.9 mph - N/A   Overcast
3:35 PM 20.3 °F 11.5 °F 8.6 °F 61% 30.34 in 10.0 mi ENE 6.9 mph - N/A   Overcast
3:55 PM 20.1 °F 10.3 °F 8.6 °F 61% 30.35 in 10.0 mi East 8.1 mph - N/A   Overcast
4:15 PM 20.1 °F 12.3 °F 9.0 °F 62% 30.34 in 10.0 mi East 5.8 mph - N/A   Overcast
4:35 PM 19.9 °F 11.1 °F 8.8 °F 62% 30.34 in 7.0 mi East 6.9 mph - N/A   Overcast
4:55 PM 19.4 °F 8.6 °F 8.4 °F 62% 30.34 in 10.0 mi East 9.2 mph - N/A   Overcast
5:15 PM 19.4 °F 10.4 °F 8.6 °F 63% 30.35 in 10.0 mi East 6.9 mph - N/A   Overcast
5:35 PM 19.4 °F 10.4 °F 8.6 °F 63% 30.35 in 10.0 mi East 6.9 mph - N/A   Overcast
5:55 PM 19.4 °F 10.4 °F 8.8 °F 63% 30.34 in 10.0 mi ENE 6.9 mph - N/A   Overcast
6:15 PM 19.2 °F 11.3 °F 9.0 °F 64% 30.34 in 10.0 mi East 5.8 mph - N/A   Overcast
6:35 PM 19.0 °F 9.0 °F 9.0 °F 65% 30.35 in 10.0 mi East 8.1 mph - N/A   Overcast
6:55 PM 19.0 °F 9.0 °F 9.0 °F 65% 30.35 in 10.0 mi East 8.1 mph - N/A   Overcast
7:15 PM 19.0 °F 10.0 °F 9.0 °F 65% 30.35 in 10.0 mi East 6.9 mph - N/A   Overcast
7:35 PM 18.9 °F 9.8 °F 8.6 °F 64% 30.36 in 10.0 mi East 6.9 mph - N/A   Overcast
7:55 PM 18.5 °F 7.5 °F 8.6 °F 65% 30.35 in 10.0 mi East 9.2 mph - N/A   Overcast
8:15 PM 18.5 °F 8.4 °F 9.1 °F 67% 30.36 in 10.0 mi East 8.1 mph - N/A   Overcast
8:35 PM 18.3 °F 6.6 °F 8.6 °F 66% 30.36 in 10.0 mi East 10.4 mph - N/A   Overcast
8:55 PM 18.0 °F 6.9 °F 8.4 °F 66% 30.36 in 10.0 mi ESE 9.2 mph - N/A   Overcast
9:15 PM 17.6 °F 4.3 °F 8.6 °F 68% 30.36 in 10.0 mi ESE 12.7 mph - N/A   Overcast
9:35 PM 17.2 °F 5.2 °F 8.4 °F 68% 30.36 in 7.0 mi ESE 10.4 mph - N/A   Overcast
9:55 PM 17.1 °F 5.0 °F 8.2 °F 68% 30.36 in 10.0 mi ESE 10.4 mph - N/A   Overcast
10:15 PM 16.7 °F 4.5 °F 7.5 °F 67% 30.35 in 10.0 mi ESE 10.4 mph - N/A   Overcast
10:35 PM 16.7 °F 5.3 °F 7.3 °F 67% 30.35 in 10.0 mi SE 9.2 mph - N/A   Overcast
10:55 PM 16.5 °F 6.0 °F 7.2 °F 67% 30.35 in 10.0 mi ESE 8.1 mph - N/A   Overcast
11:15 PM 16.3 °F 4.9 °F 6.8 °F 66% 30.34 in 10.0 mi ESE 9.2 mph - N/A   Overcast
11:35 PM 16.3 °F 4.9 °F 6.8 °F 66% 30.34 in 10.0 mi SE 9.2 mph - N/A   Overcast
11:55 PM 16.2 °F 7.6 °F 6.8 °F 67% 30.34 in 10.0 mi SE 5.8 mph - N/A   Overcast